[[{"header":{"parameterUnit":"m.s-1","parameterCategory":1,"la1":30.2991,"la2":30.254,"lo1":-89.0895,"lo2":-89.0444,"dy":0.0017,"dx":0.0017,"nx":28,"ny":28,"refTime":"2026-02-02T09:00:00:Z","depth":0,"parameterNumber":2,"parameterNumberName":"U-component_of_WINDS"},"data":[0,0,0,0,0,0,0,0,0,0,0,0,0,0,0,0,0,0,0,0,0,0,0,0,0,0,0,0,0,0,0,0,0,0,0,0,0,0,0,0,0,0,0,0,0,0,0,0,0,0,0,0,0,0,0,0,0,0,2.7531,2.7532,0,2.7634,2.7635,2.7636,2.7602,2.76,2.7598,2.7596,2.77,2.7705,2.771,0,0,0,0,0,0,0,0,0,0,0,0,0,2.7304,2.7309,2.7531,2.7533,2.7534,2.7633,2.7635,2.7636,2.7602,2.76,2.7597,2.7595,2.7699,2.7705,2.771,0,0,0,0,0,0,0,0,0,0,0,0,0,2.7404,2.731,2.7531,2.7529,2.753,2.7633,2.7635,2.7637,2.7603,2.76,2.7596,2.7593,2.7697,2.7704,2.7711,2.7823,0,0,2.7733,2.7737,0,0,0,0,0,0,0,0,2.7399,2.7413,2.7528,2.7529,2.753,2.7602,2.7593,2.7699,2.7604,2.7575,2.7595,2.7592,2.767,2.768,2.7706,2.7828,2.7832,2.7734,2.7739,2.7742,2.7744,0,0,0,0,0,0,0,2.7392,2.7408,2.7572,2.753,2.7531,2.7522,2.7533,2.7613,2.764,2.7577,2.7575,2.7588,2.767,2.7699,2.7708,2.7834,2.7734,2.774,2.7745,2.7748,2.8047,2.805,0,0,0,0,0,0,2.7384,2.7403,2.7568,2.7575,2.7455,2.7529,2.7541,2.7582,2.7639,2.7645,2.7591,2.7586,2.7688,2.77,2.7712,2.7843,2.7742,2.7748,2.7753,2.8044,2.8048,2.8052,0,0,0,0,0,0,2.738,2.74,2.7564,2.7488,2.7508,2.7536,2.7583,2.7586,2.7615,2.7649,2.7654,2.7615,2.7686,2.7702,2.7794,2.7846,2.7752,2.7758,2.8039,2.8045,2.805,2.8107,0,0,0,0,0,0,2.7373,2.7398,2.7441,2.7489,2.7513,2.7646,2.7587,2.759,2.7627,2.7622,2.7673,2.7679,2.7685,2.7784,2.7802,2.7854,2.7764,2.8035,2.8042,2.8048,2.8101,2.8114,2.8125,0,0,0,0,0,2.7365,2.7455,2.7444,2.7464,2.7568,2.7649,2.7662,2.7668,2.7632,2.7675,2.7696,2.7677,2.7838,2.7793,2.7813,2.7869,2.8032,2.804,2.8048,2.8095,2.8111,2.8125,0,0,0,0,0,0,2.7413,2.7461,2.745,2.7557,2.7599,2.7643,2.7698,2.7685,2.7738,2.7731,2.7735,2.7747,2.7841,2.7865,2.7815,2.7978,2.7929,2.7942,2.7959,2.7974,2.7986,2.7977,2.777,0,0,0,0,0,2.7436,2.7499,2.7537,2.7628,2.765,2.767,2.7706,2.7706,2.775,2.7768,2.7796,2.7839,2.7898,2.7938,2.7995,2.8105,2.8113,2.8152,2.8164,2.8174,2.8184,2.824,2.8256,2.8078,2.8078,2.8078,0,0,2.7484,2.7518,2.7557,2.7638,2.7671,2.7734,2.7686,2.7756,2.7802,2.7778,2.7866,2.7889,2.7937,2.8037,2.8083,2.8059,2.8235,2.8185,2.8192,2.8197,2.825,2.8266,2.8281,2.8084,2.8083,2.8082,0,0,2.7603,2.7637,2.7714,2.7747,2.7797,2.7809,2.7828,2.7874,2.7887,2.7976,2.7958,2.8013,2.8117,2.8151,2.8181,2.831,2.8293,2.8329,2.8392,2.8446,2.8459,2.8472,2.8514,2.853,2.8339,2.8339,2.834,0,2.7656,2.7752,2.7756,2.7826,2.7861,2.7841,2.7918,2.7951,2.8017,2.804,2.8013,2.8141,2.8172,2.8278,2.8309,2.8336,2.8355,2.8322,2.8457,2.847,2.8481,2.8522,2.8538,2.8343,2.8343,2.8342,2.8342,0,2.7813,2.7879,2.7936,2.7998,2.804,2.8113,2.8127,2.8168,2.8164,2.8179,2.8268,2.8304,2.8367,2.8392,2.839,2.8497,2.848,2.8456,2.8407,2.8502,2.854,2.8556,2.8348,2.8347,2.8346,2.8345,0,0,2.7965,2.8027,2.8048,2.8074,2.8126,2.8176,2.8248,2.8309,2.8342,2.8388,2.8446,2.8533,2.8509,2.8544,2.8545,2.8593,2.8688,2.8562,2.8563,2.8581,2.8804,2.882,2.8838,2.8678,2.8681,2.8683,2.8799,0,2.8086,2.8212,2.8216,2.833,2.8389,2.837,2.8432,2.847,2.8485,2.8537,2.8554,2.8614,2.858,2.86,2.8647,2.8667,2.8732,2.8659,2.873,2.8732,2.8715,2.8859,2.8877,2.8984,2.8814,2.8817,2.8818,0,2.8244,2.8292,2.8412,2.8452,2.8477,2.8533,2.8586,2.8637,2.8678,2.8686,2.8723,2.8717,2.8788,2.8738,2.8834,2.8784,2.8813,2.8827,2.8831,2.8836,2.8779,2.8864,2.9019,2.9034,2.8843,2.8841,2.8839,0,2.8338,2.8434,2.8517,2.8541,2.8591,2.8629,2.8652,2.869,2.8725,2.8772,2.8794,2.8849,2.8879,2.8921,2.8928,2.8892,2.9024,2.8975,2.903,2.903,2.9057,2.9055,2.9215,2.9081,2.9081,2.9081,2.908,0,2.8471,2.8544,2.8559,2.861,2.869,2.8694,2.8773,2.8793,2.8827,2.8879,2.8868,2.8917,2.8926,2.8977,2.8983,2.906,2.9075,2.9081,2.9081,2.9081,2.9079,2.9098,2.909,2.9085,2.9084,2.9083,2.9082,0,2.8589,2.8603,2.8691,2.8731,2.8742,2.8799,2.8832,2.888,2.8893,2.896,2.8976,2.8997,2.9056,2.9068,2.9139,2.9143,2.9234,2.9228,2.9219,2.9218,2.927,2.9264,2.9446,2.9469,2.9323,2.9324,2.9325,0,2.8672,2.8727,2.8771,2.8805,2.8829,2.8885,2.892,2.8926,2.8962,2.9012,2.9053,2.911,2.9157,2.9252,2.9273,2.9326,2.932,2.938,2.9328,2.9324,2.9317,2.9312,2.9316,2.939,2.9391,2.9392,2.9394,0,2.8815,2.8818,2.8869,2.8921,2.8963,2.9004,2.9044,2.9073,2.9083,2.9124,2.9184,2.922,2.9291,2.9347,2.94,2.9422,2.9409,2.941,2.9425,2.9423,2.9414,2.9416,2.9243,2.9405,2.9404,2.9403,2.9403,2.9402,2.8915,2.8962,2.9,2.9055,2.9085,2.9122,2.9167,2.9186,2.9236,2.9293,2.9294,2.9358,2.9395,2.9464,2.949,2.9539,2.952,2.9543,2.9548,2.9552,2.9555,2.9408,2.9549,2.9549,2.9549,2.9549,2.9548,0,2.9055,2.9078,2.9129,2.9183,2.9227,2.9211,2.9253,2.929,2.9347,2.9383,2.9428,2.9495,2.9549,2.9574,2.9626,2.9661,2.9656,2.9675,2.9671,2.9675,2.9571,2.9552,2.9677,2.9677,2.9677,2.9677,2.9677,2.9677,2.9132,2.9209,2.9217,2.9308,2.933,2.9392,2.9417,2.945,2.9478,2.9553,2.9598,2.9613,2.9644,2.9698,2.9747,2.9752,2.9771,2.9791,2.9794,2.9696,2.9683,2.967,2.9652,2.9796,2.9796,2.9893,2.9894,2.9895]},{"header":{"parameterUnit":"m.s-1","parameterCategory":1,"la1":30.2991,"la2":30.254,"lo1":-89.0895,"lo2":-89.0444,"dy":0.0017,"dx":0.0017,"nx":28,"ny":28,"refTime":"2026-02-02T09:00:00:Z","depth":0,"parameterNumber":3,"parameterNumberName":"V-component_of_WINDS"},"data":[0,0,0,0,0,0,0,0,0,0,0,0,0,0,0,0,0,0,0,0,0,0,0,0,0,0,0,0,0,0,0,0,0,0,0,0,0,0,0,0,0,0,0,0,0,0,0,0,0,0,0,0,0,0,0,0,0,0,5.2018,5.2019,0,5.2083,5.2084,5.2085,5.2022,5.2019,5.2017,5.2014,5.2077,5.2081,5.2084,0,0,0,0,0,0,0,0,0,0,0,0,0,5.1834,5.1837,5.2018,5.2019,5.202,5.2083,5.2084,5.2085,5.2022,5.2019,5.2016,5.2013,5.2075,5.208,5.2085,0,0,0,0,0,0,0,0,0,0,0,0,0,5.1908,5.1839,5.2018,5.1996,5.1995,5.2083,5.2084,5.2085,5.2023,5.2019,5.2015,5.2012,5.2074,5.208,5.2085,5.2197,0,0,5.2104,5.2106,0,0,0,0,0,0,0,0,5.1904,5.1915,5.1999,5.1998,5.1997,5.2041,5.2042,5.2122,5.2024,5.2012,5.2014,5.201,5.2067,5.2074,5.2094,5.22,5.2202,5.2104,5.2108,5.211,5.2112,0,0,0,0,0,0,0,5.1899,5.1911,5.2044,5.2,5.1999,5.1981,5.1988,5.2057,5.206,5.2013,5.2008,5.2017,5.2066,5.2088,5.2095,5.2203,5.2104,5.2109,5.2113,5.2115,5.2399,5.2403,0,0,0,0,0,0,5.1897,5.1908,5.2042,5.2046,5.194,5.1988,5.1995,5.203,5.2059,5.206,5.202,5.2014,5.208,5.2088,5.2097,5.2226,5.211,5.2116,5.2119,5.2395,5.24,5.2405,0,0,0,0,0,0,5.1893,5.1909,5.2039,5.1975,5.1991,5.1995,5.2035,5.2033,5.2056,5.2065,5.2064,5.2043,5.2077,5.2088,5.2172,5.2227,5.2119,5.2124,5.2391,5.2397,5.2402,5.2487,0,0,0,0,0,0,5.1888,5.1908,5.1952,5.1977,5.1994,5.2115,5.2039,5.2037,5.2066,5.2059,5.2086,5.2086,5.2075,5.2163,5.2178,5.2234,5.2129,5.2386,5.2393,5.2401,5.2479,5.2495,5.2509,0,0,0,0,0,5.1881,5.1974,5.1955,5.1971,5.205,5.2119,5.2128,5.2115,5.2071,5.2114,5.2119,5.2085,5.222,5.2172,5.2188,5.2247,5.2382,5.2391,5.24,5.2473,5.2492,5.2509,0,0,0,0,0,0,5.1954,5.1976,5.1956,5.2059,5.2088,5.2108,5.2162,5.2136,5.2177,5.2168,5.2148,5.2154,5.2242,5.2253,5.22,5.2354,5.2293,5.2306,5.2343,5.2362,5.2376,5.2371,5.2134,0,0,0,0,0,5.1983,5.2038,5.2054,5.2143,5.2159,5.2158,5.2187,5.2175,5.2202,5.2214,5.2225,5.2252,5.23,5.2332,5.2377,5.2481,5.2484,5.2529,5.2544,5.2556,5.2566,5.2618,5.2637,5.2434,5.2434,5.2434,0,0,5.2041,5.206,5.2096,5.2158,5.2179,5.2234,5.2168,5.2231,5.2271,5.2223,5.2302,5.2311,5.234,5.2433,5.2475,5.2445,5.2623,5.2567,5.2577,5.258,5.263,5.2649,5.2666,5.244,5.2439,5.2438,0,0,5.2176,5.2197,5.2272,5.2294,5.2326,5.2324,5.2342,5.2366,5.2371,5.245,5.2414,5.246,5.2544,5.2565,5.2587,5.2727,5.2696,5.2742,5.2818,5.2869,5.2885,5.2899,5.2946,5.2963,5.2752,5.2753,5.2753,0,5.2244,5.2328,5.2314,5.2378,5.2405,5.2365,5.2438,5.246,5.2504,5.2523,5.2489,5.2591,5.2608,5.2704,5.2738,5.2758,5.2775,5.2738,5.2885,5.2898,5.2911,5.2955,5.2974,5.2758,5.2757,5.2757,5.2756,0,5.2408,5.2467,5.2524,5.2568,5.2601,5.267,5.2664,5.2699,5.2683,5.2684,5.2763,5.2782,5.2828,5.285,5.2835,5.2944,5.2923,5.2888,5.2826,5.2936,5.2977,5.2994,5.2765,5.2763,5.2762,5.2761,0,0,5.2591,5.2625,5.2646,5.2664,5.2695,5.2739,5.2805,5.2851,5.2879,5.2911,5.2964,5.3035,5.3001,5.3025,5.3012,5.3058,5.3163,5.3016,5.3016,5.304,5.3279,5.3304,5.3324,5.3143,5.3147,5.3149,5.3276,0,5.2724,5.2839,5.2827,5.2936,5.2988,5.2949,5.3006,5.303,5.3033,5.3075,5.3077,5.3127,5.308,5.3094,5.3138,5.3141,5.321,5.3132,5.3189,5.3191,5.3181,5.3346,5.3373,5.3492,5.3292,5.3295,5.3297,0,5.2894,5.2932,5.3046,5.3066,5.3088,5.3139,5.3178,5.3221,5.3246,5.3244,5.3271,5.3249,5.3312,5.3251,5.3336,5.3283,5.3306,5.3311,5.3315,5.3318,5.3249,5.335,5.3529,5.3546,5.3323,5.332,5.3319,0,5.3012,5.3091,5.3168,5.3185,5.3212,5.3249,5.3261,5.3283,5.331,5.3344,5.3361,5.3402,5.3424,5.3455,5.3444,5.3401,5.353,5.3469,5.3528,5.3528,5.3555,5.3553,5.3737,5.3574,5.3574,5.3574,5.3573,0,5.316,5.323,5.3221,5.3268,5.3345,5.333,5.3405,5.3413,5.3432,5.3478,5.3448,5.3492,5.3475,5.3518,5.3509,5.3579,5.359,5.3588,5.3584,5.3589,5.3589,5.3602,5.3592,5.3578,5.3577,5.3576,5.3576,0,5.3303,5.33,5.3381,5.34,5.3406,5.3461,5.3476,5.3519,5.3519,5.3578,5.359,5.359,5.3637,5.363,5.3683,5.3677,5.3763,5.3751,5.3755,5.3751,5.3809,5.3802,5.4006,5.403,5.3854,5.3856,5.3858,0,5.3396,5.3449,5.3473,5.3502,5.3517,5.3565,5.3593,5.3579,5.3608,5.364,5.3678,5.3724,5.3759,5.3836,5.3839,5.3879,5.3865,5.3934,5.3871,5.3873,5.3862,5.3858,5.3862,5.3945,5.3948,5.3949,5.3951,0,5.3561,5.3557,5.3598,5.3639,5.3672,5.3704,5.3731,5.3757,5.3745,5.3779,5.3828,5.3855,5.3909,5.3953,5.3989,5.4,5.3972,5.3971,5.3986,5.399,5.3989,5.3987,5.3785,5.3965,5.3964,5.3963,5.3962,5.3961,5.368,5.3724,5.3747,5.3793,5.3813,5.3839,5.388,5.3884,5.3925,5.3968,5.3957,5.4011,5.4032,5.4078,5.4093,5.4134,5.4108,5.4131,5.4136,5.4141,5.4147,5.3984,5.4141,5.414,5.414,5.4139,5.4139,0,5.384,5.3853,5.3896,5.3935,5.3971,5.3944,5.3972,5.4003,5.4052,5.4074,5.4109,5.4164,5.4206,5.4212,5.4251,5.4282,5.427,5.4293,5.4289,5.4291,5.4169,5.4151,5.4301,5.4301,5.4301,5.4301,5.4301,5.4301,5.3928,5.4,5.3998,5.4078,5.4089,5.4143,5.4161,5.4184,5.4201,5.4264,5.4299,5.4303,5.4318,5.4357,5.4394,5.4394,5.4409,5.4435,5.4431,5.4316,5.43,5.4284,5.4267,5.4439,5.444,5.4548,5.4549,5.455]}]]